GLENN Weather Reports


Display with metric or nautical units.
time (UTC)temp
F
wind
direction
speed
MPH
gust
MPH
rain 1hr
in
rain 24hr
in
rain mn
in
humidity
%
barometer
mb
20260505034526 44 162 6.0 9.0 0.00 0.00 0.00 60 1015.2
20260505033030 45 192 4.0 9.0 0.00 0.00 0.00 57 1015.0
20260505031504 46 167 5.0 10.0 0.00 0.00 0.00 56 1014.7
20260505030007 46 153 5.0 8.0 0.00 0.00 0.00 55 1014.5
20260505024528 47 159 3.0 7.0 0.00 0.00 0.00 54 1014.4
20260505023015 48 167 0.0 8.0 0.00 0.00 0.00 50 1014.2
20260505021541 48 173 5.0 7.0 0.00 0.00 0.00 52 1014.1
20260505020006 48 148 7.0 10.0 0.00 0.00 0.00 51 1014.0
20260505014509 49 171 7.0 11.0 0.00 0.00 0.00 50 1014.0
20260505013014 49 187 6.0 10.0 0.00 0.00 0.00 49 1013.9
20260505011521 50 165 8.0 10.0 0.00 0.00 0.00 50 1013.7
20260505010021 50 163 1.0 9.0 0.00 0.00 0.00 50 1013.7
20260505004516 51 304 0.0 3.0 0.00 0.00 0.00 51 1013.7
20260505003011 51 296 2.0 6.0 0.00 0.00 0.00 48 1013.7
20260505001517 51 294 2.0 6.0 0.00 0.00 0.00 48 1013.7
20260505000021 51 325 2.0 8.0 0.00 0.00 0.00 48 1013.6
20260504234524 51 312 3.0 12.0 0.00 0.00 0.00 48 1013.5
20260504233008 52 301 7.0 12.0 0.00 0.00 0.00 45 1013.3
20260504231514 52 256 9.0 14.0 0.00 0.00 0.00 48 1013.2
20260504230018 52 275 3.0 7.0 0.00 0.00 0.00 49 1013.3
20260504224524 52 229 3.0 8.0 0.00 0.00 0.00 49 1013.3
20260504223034 54 209 3.0 7.0 0.00 0.00 0.00 46 1013.3
20260504221512 56 272 2.0 12.0 0.00 0.00 0.00 42 1013.3
20260504220021 54 258 5.0 8.0 0.00 0.00 0.00 52 1013.5
20260504214520 53 284 2.0 4.0 0.00 0.00 0.00 50 1013.7
20260504213024 53 290 3.0 6.0 0.00 0.00 0.00 50 1013.7
20260504211529 53 314 1.0 3.0 0.00 0.00 0.00 48 1013.7
20260504210013 52 331 2.0 6.0 0.00 0.00 0.00 50 1013.7
20260504204541 52 348 2.0 4.0 0.00 0.00 0.00 50 1013.8
20260504203029 52 348 2.0 6.0 0.00 0.00 0.00 49 1013.7
20260504201526 53 352 2.0 7.0 0.00 0.00 0.00 47 1013.6
20260504200029 53 254 2.0 4.0 0.00 0.00 0.00 48 1013.7
20260504194516 53 221 2.0 5.0 0.00 0.00 0.00 45 1013.7
20260504193021 54 269 2.0 7.0 0.00 0.00 0.00 44 1013.8
20260504191525 55 32 2.0 8.0 0.00 0.00 0.00 44 1014.0
20260504190036 54 26 1.0 5.0 0.00 0.00 0.00 44 1014.0
20260504184535 54 245 2.0 8.0 0.00 0.00 0.00 44 1014.1
20260504183022 53 182 5.0 10.0 0.00 0.00 0.00 46 1014.2
20260504181524 53 90 2.0 7.0 0.00 0.00 0.00 49 1014.3
20260504180008 51 209 3.0 9.0 0.00 0.00 0.00 45 1014.5
20260504174513 52 126 3.0 12.0 0.00 0.00 0.00 46 1014.6
20260504173016 51 296 2.0 10.0 0.00 0.00 0.00 47 1014.6
20260504171528 51 108 1.0 9.0 0.00 0.00 0.00 46 1014.7
20260504081537 52 106 2.0 4.0 0.00 0.00 0.00 38 1011.4
20260504050022 54 123 4.0 7.0 0.00 0.00 0.00 40 1011.6
20260504044526 54 153 5.0 7.0 0.00 0.00 0.00 38 1011.5
20260504043008 54 173 4.0 6.0 0.00 0.00 0.00 39 1011.3
20260504041514 57 202 1.0 3.0 0.00 0.00 0.00 33 1011.2
20260504040022 57 85 0.0 2.0 0.00 0.00 0.00 33 1010.9